Location: Follega
(52.8850°N, 5.7362°E)
Time: 20:21:53
(UTC+00:00)

Cosmos 1331 Rocket - Pass Details

Date: 01 June 2020
Orbit: 749 x 778 km, 74.0° (Epoch: 04 July)

Event Time Altitude Azimuth Distance (km) Brightness Sun altitude
Rises 20:58:15 0° 190° (S) 3,186 6.8 -7.6°
Reaches altitude 10° 21:00:38 10° 187° (S) 2,268 6.0 -7.8°
Maximum altitude 21:05:39 58° 109° (ESE) 882 4.1 -8.2°
Drops below altitude 10° 21:10:45 10° 32° (NNE) 2,298 6.8 -8.6°
Sets 21:13:10 0° 28° (NNE) 3,232 7.7 -8.8°
